Terminal Aerodrome Forecast
Issued by NWS Norman, OK

Home | Current Version | Previous Version | Text Only | Print | Product List | Glossary On
Versions: 1 2 3 4 5 6 7 8 9 10 11 12 13 14 15 16 17 18 19 20 21 22 23
000
FTUS44 KOUN 222320
TAFSPS
TAF
KSPS 222320Z 2300/2324 17007KT P6SM SCT050 OVC100
      TEMPO 2300/2303 VRB15KT 5SM -SHRA OVC040
     FM230300 15007KT P6SM OVC040
     FM231700 19008KT P6SM SCT050=

USA.gov is the U.S. government's official web portal to all federal, state and local government web resources and services.